GFSNW_sfc_30mbdewp_051.txt.gz
Dewpoint
47 47 47 47 47 47 45 40 32 36 43 35 35 30 29 24 26 22 19 21 27 14 23 22 16 17 18 21 21 21 19 19 20 23 23 23 23 23 24 22 22 21 20 20
48 48 47 47 47 47 43 36 35 41 42 28 31 30 26 19 22 21 19 23 27 26 25 25 22 18 20 22 23 23 21 18 18 19 23 25 24 25 24 25 24 22 25 21
44 45 46 47 47 47 43 37 30 37 39 33 28 26 25 21 23 22 20 26 24 23 29 27 26 22 26 23 24 26 26 20 19 17 18 20 20 20 20 21 23 22 19 17
43 43 44 46 46 48 43 37 31 34 30 32 27 25 21 16 16 24 23 24 30 22 21 23 26 27 32 29 28 27 27 20 19 18 17 16 16 17 18 18 20 20 20 18
43 43 43 45 47 47 41 32 31 32 30 33 29 26 21 18 15 19 22 24 31 29 22 23 25 29 27 25 30 27 26 23 21 17 17 16 14 14 13 13 15 17 17 16
43 43 43 45 46 46 39 38 32 29 27 31 27 28 23 18 14 18 18 21 23 29 26 34 36 35 34 34 32 27 27 26 21 20 18 17 18 16 15 14 14 16 16 17
44 43 43 44 45 46 38 39 30 31 26 32 28 25 24 19 15 17 17 16 20 27 35 35 34 33 29 34 33 32 31 27 25 24 25 21 21 20 19 18 18 17 18 19
44 43 43 43 46 45 40 38 34 32 28 26 28 25 23 21 19 22 19 18 20 25 32 29 27 29 28 30 34 30 32 32 28 27 24 20 18 21 21 18 17 17 18 20
45 44 44 43 43 45 42 38 37 36 31 26 26 24 24 21 22 23 26 24 30 33 32 27 20 15 13 12 27 33 29 33 33 30 24 20 22 22 22 20 20 19 19 19
43 43 44 43 43 45 42 40 39 39 32 26 28 27 26 23 25 29 29 29 33 32 33 30 21 18 14 12 26 35 33 34 34 32 27 23 22 21 22 22 22 22 21 20
44 44 44 43 44 45 42 40 41 40 35 32 33 34 33 26 25 26 30 26 34 34 32 26 21 21 20 16 17 32 33 30 34 33 30 27 27 26 23 26 27 28 26 25
43 44 43 42 43 45 42 39 42 42 38 39 41 41 41 39 30 27 29 34 31 31 26 24 23 26 31 22 21 20 28 33 31 30 29 32 31 28 28 26 27 31 29 29
43 44 42 43 44 44 44 42 42 39 38 37 37 36 39 42 41 38 31 32 31 29 29 26 30 30 28 28 27 22 26 28 31 31 31 31 33 33 30 32 31 32 32 30
43 43 42 43 43 43 42 40 41 37 37 33 33 36 34 39 42 42 42 40 34 31 31 32 35 31 23 28 25 22 24 25 28 28 27 27 30 34 35 33 33 33 32 32
43 43 44 43 44 41 41 41 40 39 29 29 27 34 33 35 40 41 41 41 39 33 32 34 33 27 20 30 32 26 25 28 30 29 24 32 33 33 36 35 34 36 33 32
44 44 44 43 41 41 39 35 41 37 35 27 26 37 32 31 37 40 40 42 39 34 33 34 30 25 27 31 28 23 21 26 30 29 32 37 40 37 37 36 36 36 35 33
44 44 43 41 39 37 36 33 34 34 31 27 27 31 34 34 33 37 38 41 37 39 36 36 34 31 35 35 32 22 23 32 33 33 38 36 36 34 37 37 37 37 36 35
42 41 41 41 41 40 37 39 37 34 29 30 28 32 35 36 36 34 38 39 39 38 36 35 35 35 40 34 29 30 30 32 36 38 39 38 37 36 36 37 37 36 35 35
41 39 37 36 35 33 40 42 39 38 33 29 32 30 30 40 36 39 39 39 35 35 35 35 34 34 33 35 36 37 39 39 39 39 37 36 36 35 35 35 35 35 35 35
37 34 31 29 37 43 40 38 35 36 35 37 32 36 34 39 38 38 38 39 37 34 38 37 37 34 36 35 37 39 39 38 38 37 37 37 36 35 35 35 35 35 35 34
33 32 35 38 42 38 37 32 32 32 31 35 33 34 33 38 36 36 40 35 36 33 36 34 35 30 29 33 34 38 39 39 38 38 38 37 37 36 35 35 35 34 34 33
37 35 35 36 36 35 32 30 31 31 29 36 33 33 33 38 40 35 37 34 33 31 35 34 26 28 29 32 32 33 35 36 36 36 36 36 36 36 35 34 33 32 30 29
39 33 32 33 33 28 27 25 29 30 32 32 35 35 38 39 37 34 34 33 31 33 30 26 26 29 29 31 31 31 31 32 32 31 30 30 30 30 30 28 29 29 27 27
34 32 28 28 26 25 25 26 28 31 31 32 33 34 34 34 33 32 31 30 33 29 25 22 25 27 30 31 31 30 28 28 28 28 28 28 27 27 28 29 29 28 26 26
28 26 23 24 28 26 27 29 30 30 31 31 32 33 33 31 30 30 31 27 21 20 19 22 25 28 30 29 29 29 28 29 28 28 27 27 27 26 26 27 27 26 25 23
22 19 21 21 23 21 22 23 25 28 30 31 32 31 27 25 26 22 21 19 16 18 21 24 26 28 29 28 29 28 29 28 27 27 26 25 25 24 24 25 24 24 24 23
21 20 21 21 20 19 21 23 23 28 29 27 28 22 20 26 20 16 17 15 18 21 21 23 24 25 27 27 27 27 27 26 26 26 26 25 25 25 23 21 22 22 21 22

GFSNW_sfc_30mbdewp_057.txt.gz
Dewpoint
46 47 47 48 49 49 48 42 33 41 43 34 33 29 29 28 24 27 26 22 19 19 19 19 20 26 31 26 24 23 23 22 20 21 23 23 23 21 22 26 26 27 25 24
45 46 47 48 48 48 45 38 37 42 40 28 28 31 30 30 28 26 24 23 19 20 19 19 32 32 32 36 33 23 24 20 20 21 21 22 21 21 23 24 30 27 26 27
45 46 47 46 48 48 46 37 30 36 38 33 28 27 29 29 29 28 27 25 23 19 20 21 29 32 34 39 38 30 26 21 19 20 22 23 22 21 22 24 23 23 28 28
45 46 46 47 48 48 46 36 32 35 30 31 31 27 26 27 28 26 24 23 24 23 19 21 23 33 38 39 37 33 26 21 20 22 24 24 24 25 23 22 25 26 27 28
47 46 46 45 45 46 44 32 33 35 28 32 31 30 28 26 24 26 24 22 22 23 21 19 23 35 38 38 41 38 31 23 22 20 22 24 24 26 25 22 26 27 28 27
45 45 44 45 45 45 42 39 37 33 31 31 30 29 28 28 27 26 25 24 23 22 22 24 40 42 42 41 39 39 36 27 26 22 24 23 23 22 24 25 23 22 20 21
43 44 44 44 44 45 41 39 38 34 31 30 29 29 29 29 29 28 26 25 23 22 38 43 41 39 38 38 38 42 38 35 29 24 25 21 24 23 22 21 22 20 19 18
42 42 42 43 43 43 42 40 39 35 30 32 29 29 28 28 29 28 28 26 26 24 20 23 28 32 32 33 36 38 40 37 29 26 25 24 24 23 22 20 21 21 19 19
43 43 43 42 43 43 42 42 41 39 33 32 30 29 29 27 28 28 27 29 30 29 20 23 20 23 28 28 30 38 37 39 30 32 26 22 26 28 29 26 20 24 24 23
44 44 44 43 43 43 42 40 41 38 32 35 33 28 28 29 28 27 27 28 29 30 24 23 23 26 30 25 24 25 30 32 32 32 31 31 29 27 28 22 23 25 26 26
44 44 44 45 44 44 43 41 42 38 35 37 34 36 36 31 30 27 30 29 30 29 24 23 24 23 25 26 25 28 28 28 27 31 31 28 36 33 23 26 26 28 27 28
44 44 44 45 45 44 44 40 43 41 38 39 43 43 41 42 40 35 31 29 28 31 29 28 27 24 25 23 20 27 26 26 28 27 29 37 35 38 40 40 40 36 35 35
44 44 44 44 44 44 44 41 42 41 37 38 39 36 41 43 42 43 37 36 34 38 39 35 32 25 28 22 20 19 29 33 28 30 32 29 30 36 35 41 41 42 38 39
43 43 44 44 44 44 44 42 42 39 38 33 36 41 42 42 41 41 42 42 40 39 39 35 34 32 30 23 24 25 28 30 27 30 32 33 34 31 32 35 41 38 41 35
44 43 43 44 44 44 43 43 42 42 34 31 33 39 39 40 38 39 40 42 39 39 37 35 32 33 33 33 31 25 27 23 26 25 32 29 36 38 39 36 33 37 38 38
43 43 45 44 45 45 43 38 43 44 42 35 30 36 34 40 41 40 40 39 38 38 37 35 38 38 31 27 26 29 27 27 26 23 31 32 34 38 38 37 37 38 39 39
44 43 44 43 43 43 38 35 40 44 42 35 28 30 33 34 37 37 38 40 40 38 37 38 36 36 37 29 27 37 39 40 39 40 39 38 38 37 37 37 38 37 38 37
43 44 44 43 43 40 40 42 42 44 36 33 29 30 32 35 33 34 37 36 38 38 36 37 37 37 37 31 33 35 36 38 39 39 39 38 38 37 37 36 36 36 37 38
42 41 40 40 40 37 37 39 40 40 38 31 30 28 27 38 37 35 36 36 33 38 35 34 36 34 27 28 30 32 34 35 37 39 39 39 38 38 36 36 36 36 36 34
40 40 37 33 37 40 37 37 36 35 36 35 29 33 31 35 34 33 34 35 32 31 34 38 34 26 31 31 32 32 33 34 36 37 36 37 37 38 36 35 34 32 30 28
38 36 34 39 42 38 35 30 30 32 30 32 32 33 32 37 32 32 35 32 33 26 31 30 29 22 26 31 31 30 31 32 32 34 34 35 35 35 33 30 29 28 27 25
38 37 39 39 36 33 29 29 30 28 28 33 33 34 35 36 37 33 35 30 32 27 36 27 20 23 28 29 28 29 29 29 29 30 30 30 30 30 29 27 25 25 24 23
39 37 34 34 31 25 23 24 27 27 29 30 32 32 33 35 34 32 32 29 28 33 25 19 20 26 27 28 28 27 28 28 27 27 27 26 26 25 25 24 24 23 22 22
32 28 23 23 20 22 22 22 24 29 29 29 30 32 32 32 31 31 29 29 29 22 17 14 21 24 26 27 27 26 25 25 24 24 24 23 22 22 23 23 23 22 21 21
23 22 20 19 24 23 24 26 27 29 29 29 31 32 32 29 28 27 28 23 15 17 13 18 23 25 25 25 25 25 24 23 22 23 22 22 22 21 21 22 22 22 21 21
20 19 19 20 18 18 21 23 23 27 27 29 31 30 24 23 20 16 17 15 12 14 18 21 23 22 24 24 24 24 24 24 23 23 22 22 21 21 21 22 22 22 21 20
22 19 22 22 21 20 22 25 24 28 27 26 25 18 18 20 14 14 17 13 15 18 20 20 21 21 22 22 22 23 24 24 23 23 22 22 23 21 19 19 21 21 21 20

GFSNW_sfc_30mbdewp_060.txt.gz
Dewpoint
44 46 47 48 48 47 47 43 33 43 43 33 32 28 28 29 27 28 28 25 24 21 20 20 20 20 23 33 37 31 26 23 21 20 22 24 22 22 23 22 25 27 26 25
44 45 46 47 48 47 45 38 36 42 39 27 28 27 27 29 28 27 26 26 25 21 20 18 22 26 27 38 36 37 37 24 21 20 21 22 21 23 23 24 26 23 24 26
44 45 45 46 47 48 46 36 30 37 38 33 28 27 26 27 29 28 28 28 27 24 23 22 19 24 28 37 38 41 39 33 27 20 20 22 21 22 23 23 22 23 27 27
44 44 45 46 47 47 46 34 32 35 30 31 31 29 26 24 25 29 29 28 26 26 24 22 19 23 37 36 40 39 40 34 28 26 22 21 24 23 24 22 24 22 23 26
44 44 45 46 46 47 43 31 33 36 31 32 32 29 26 26 26 27 27 25 22 22 24 23 20 22 23 33 37 34 39 34 34 26 25 21 20 24 25 24 24 25 25 28
44 44 45 46 46 46 41 41 38 34 32 33 31 29 27 27 27 27 28 27 26 24 23 23 24 36 40 41 35 34 34 35 32 29 23 22 22 23 24 26 27 26 25 27
44 45 45 45 47 46 41 40 39 35 30 30 31 28 29 27 28 27 25 25 26 26 27 39 41 38 39 39 40 38 34 33 34 31 28 23 24 26 25 25 25 26 26 24
43 44 45 45 46 46 42 42 39 36 31 32 29 28 28 29 28 28 29 30 29 30 26 26 23 25 25 31 37 40 39 35 31 29 30 26 28 28 27 26 24 25 23 22
42 42 43 44 43 44 44 41 41 37 33 32 31 28 29 27 28 28 29 30 31 30 27 24 19 15 21 24 34 39 37 36 31 30 26 26 26 28 28 27 22 24 24 23
43 43 43 42 42 42 42 42 41 38 31 35 34 29 29 29 29 27 28 29 29 30 26 25 23 21 22 19 23 29 31 31 29 29 28 31 33 37 28 24 23 27 29 27
44 44 44 43 43 43 42 39 42 38 33 34 38 35 31 30 29 27 29 28 30 30 26 26 24 23 26 28 27 26 24 25 26 29 28 28 37 37 30 35 38 40 39 37
44 45 45 44 45 43 42 38 42 42 37 36 40 39 42 34 33 30 31 28 28 30 29 28 25 22 26 25 23 26 25 26 24 27 27 31 39 36 41 41 37 39 39 40
44 44 44 44 44 44 43 41 41 40 37 35 35 38 43 44 43 45 32 33 33 34 37 32 29 23 25 20 22 22 24 31 29 31 30 32 31 36 37 40 35 37 39 38
44 44 44 44 44 44 44 41 42 39 36 30 33 38 40 41 42 41 43 41 41 40 41 34 31 27 32 25 25 23 22 30 30 30 31 33 33 34 36 34 36 35 37 37
44 43 44 44 44 44 45 43 42 39 32 29 34 40 40 39 42 40 42 39 37 37 36 36 32 33 31 32 32 28 33 32 29 26 30 30 29 28 31 34 32 35 34 35
43 44 44 44 44 45 42 37 42 41 43 34 28 36 40 40 39 38 39 39 38 37 37 35 36 39 30 25 25 36 37 37 39 37 39 36 38 38 38 39 38 38 38 39
43 44 43 44 44 42 37 34 40 43 43 36 31 29 37 39 39 39 39 41 39 38 39 36 36 36 38 31 26 33 35 36 39 38 40 38 37 37 37 36 37 38 39 39
43 43 44 44 42 41 39 44 42 43 39 34 28 31 32 37 34 34 39 38 37 37 36 38 36 37 36 30 29 32 33 34 37 37 38 39 39 37 36 37 37 36 33 31
43 43 42 41 40 38 40 43 43 43 36 29 29 26 28 37 36 35 36 37 33 36 33 33 34 31 22 26 28 30 31 32 35 37 37 37 37 36 35 35 34 32 29 27
42 40 35 32 39 43 38 36 34 33 35 35 27 32 30 35 34 32 32 33 31 30 32 37 27 23 28 28 30 30 30 32 33 34 34 35 36 33 31 30 29 28 26 25
36 34 35 39 41 36 33 31 30 32 28 32 32 32 31 36 31 31 34 32 31 27 31 29 23 20 24 29 27 28 29 30 31 32 32 33 33 32 29 27 26 25 24 23
37 37 39 38 35 33 27 27 29 28 29 32 32 34 36 35 37 32 34 30 31 25 31 21 16 22 26 27 25 26 27 27 27 27 27 26 26 26 25 23 22 22 22 21
39 35 33 27 25 18 20 22 25 25 28 28 30 31 33 35 34 32 31 27 27 29 20 15 18 23 25 25 24 23 24 24 23 23 23 23 23 23 23 21 22 22 20 21
26 23 19 19 17 19 19 19 21 26 27 27 29 30 32 32 30 30 27 25 24 17 12 11 19 22 23 24 23 22 21 22 22 22 21 21 21 20 21 21 22 20 19 20
20 19 16 17 21 21 23 24 25 26 28 28 29 31 30 26 25 24 25 18 12 13 11 16 20 22 23 23 23 22 21 21 21 21 20 20 21 20 20 21 21 21 20 19
19 19 17 19 16 16 19 21 21 26 26 28 29 26 22 20 19 16 15 11 9 12 16 19 20 20 21 22 22 22 22 22 22 22 21 21 20 20 20 20 20 19 20 19
20 18 21 20 20 18 20 23 22 26 26 23 21 14 16 16 14 13 14 11 14 16 17 18 19 19 19 20 20 19 19 18 19 21 22 22 22 21 18 17 19 19 19 18

GFSNW_sfc_30mbdewp_063.txt.gz
Dewpoint
42 43 44 45 46 47 46 42 33 43 43 33 32 25 25 27 26 28 27 27 25 22 21 17 19 20 21 36 37 34 34 26 21 21 23 23 23 23 24 22 24 26 23 22
42 42 43 44 45 46 45 38 35 44 40 27 28 27 26 28 28 27 26 26 27 23 21 16 19 22 28 38 37 33 35 33 25 22 23 23 21 21 22 26 27 23 23 23
41 42 43 43 45 46 45 34 30 37 38 33 27 27 25 26 28 28 29 28 28 26 24 24 21 22 22 30 39 40 39 35 33 29 25 24 21 20 21 23 22 22 23 24
42 43 43 44 44 46 44 33 31 35 29 31 30 28 26 24 24 27 28 26 25 25 24 23 21 21 26 27 37 39 37 33 36 35 34 31 28 23 21 20 23 22 23 24
42 43 43 44 45 46 42 31 33 36 32 34 31 29 27 24 25 26 27 27 27 26 23 24 21 23 23 22 33 37 38 30 35 30 33 31 29 24 22 24 24 24 24 24
42 43 43 43 45 45 39 39 38 36 33 33 31 28 27 27 27 27 25 28 27 26 26 25 26 26 26 31 35 33 34 32 30 23 31 29 25 27 25 22 23 26 24 25
42 43 43 44 44 45 42 40 38 34 30 31 30 29 30 27 27 26 27 28 28 28 29 33 34 36 35 36 38 38 34 32 32 26 27 21 30 28 29 24 24 27 27 27
43 44 44 44 44 45 43 42 39 35 30 33 31 31 30 28 28 28 26 26 28 29 30 27 24 25 30 32 37 38 36 34 30 22 22 25 23 27 27 27 25 26 26 26
43 43 45 45 45 45 44 42 43 38 33 31 34 31 31 31 28 28 29 31 33 31 29 26 24 19 20 26 33 39 39 36 29 30 23 17 16 24 23 33 26 29 27 27
42 42 41 41 43 45 44 42 42 37 31 35 35 32 31 30 30 28 28 29 30 31 27 26 23 23 22 16 28 29 31 32 29 29 26 28 31 37 39 32 30 39 39 37
42 42 42 42 43 42 44 42 42 38 32 35 38 37 33 30 29 27 29 29 30 29 25 25 25 24 24 23 25 28 28 28 28 29 27 22 36 33 33 36 39 38 38 38
43 43 43 43 42 42 42 39 43 41 36 35 38 35 37 38 33 29 31 27 30 30 26 27 26 24 25 26 20 28 23 25 24 27 25 31 35 30 35 38 41 38 39 38
44 44 44 44 44 43 41 39 41 41 35 35 35 33 39 42 43 37 29 32 32 34 34 30 28 23 25 21 23 22 25 30 28 27 27 28 30 35 38 43 42 40 39 39
44 44 45 45 44 44 43 40 41 38 37 30 30 35 33 39 43 42 41 37 40 37 38 32 32 31 31 24 23 22 23 24 22 23 28 29 33 33 33 35 39 39 39 39
43 44 44 44 45 44 45 42 42 37 31 27 28 38 35 35 41 41 41 40 39 37 33 33 32 33 32 34 33 28 36 33 30 28 36 38 36 36 37 37 37 38 38 36
43 44 44 44 44 44 43 36 42 39 39 32 27 36 37 36 39 40 39 38 39 37 37 36 36 39 35 28 25 35 36 36 37 36 38 38 40 39 38 38 38 39 39 38
44 44 44 44 44 43 37 34 39 40 38 35 31 31 40 40 40 39 38 40 39 36 36 35 35 36 37 31 28 31 32 33 35 38 38 39 39 37 38 38 37 34 32 30
44 44 44 44 43 42 41 43 42 42 38 37 30 31 35 40 36 34 39 38 38 38 35 36 35 37 35 25 28 30 30 33 35 34 38 38 37 35 33 33 32 30 28 26
44 43 42 41 40 36 40 42 41 43 37 31 29 27 28 38 35 36 37 36 31 37 34 34 36 28 21 24 27 27 29 30 32 33 36 37 34 33 31 30 28 27 25 24
40 38 35 32 39 44 42 39 35 33 37 34 29 31 31 36 33 32 33 33 32 29 32 33 24 22 26 27 25 27 28 30 31 31 32 32 34 30 28 27 26 25 24 23
38 36 34 40 43 38 34 30 30 31 28 31 32 31 31 36 31 31 33 31 31 27 30 26 21 18 23 25 24 25 27 28 28 30 28 28 28 27 25 24 23 23 22 22
36 38 39 37 31 28 26 27 28 28 26 30 32 34 34 34 37 32 33 30 30 25 26 20 15 20 23 23 22 23 24 24 24 24 23 23 23 22 21 20 20 20 20 20
34 30 25 21 20 16 18 21 23 23 26 26 30 31 33 35 35 32 31 27 26 27 17 13 16 21 22 23 21 21 22 22 22 22 22 21 21 21 20 19 20 19 19 19
23 19 16 15 13 17 18 18 20 24 25 25 29 30 31 31 30 28 23 22 21 14 10 10 17 20 21 22 22 19 20 20 20 20 20 20 19 19 20 20 19 18 17 17
19 17 14 15 20 20 21 22 24 25 27 27 30 29 27 24 22 22 22 14 10 11 10 14 18 20 20 20 20 20 20 20 19 20 19 19 18 18 18 19 19 19 18 18
19 17 15 16 15 15 17 19 20 24 25 28 26 24 21 18 18 15 13 8 8 11 14 18 18 18 18 18 19 20 21 21 20 20 20 19 18 18 18 18 18 18 17 16
20 17 20 18 17 16 17 20 20 24 24 21 16 13 14 17 14 9 12 9 12 14 15 16 17 17 17 18 18 18 18 18 18 18 19 19 20 19 16 15 17 17 17 16

GFSNW_sfc_30mbdewp_069.txt.gz
Dewpoint
38 37 37 38 39 41 40 36 30 43 45 33 32 28 26 24 23 27 26 28 27 24 22 18 18 23 29 27 37 32 35 28 19 19 22 24 24 23 24 23 21 26 24 21
38 37 38 38 40 40 39 34 34 44 42 27 28 31 30 24 25 24 26 27 28 27 23 18 18 24 27 26 26 33 33 31 27 24 25 31 30 29 30 28 26 21 23 22
37 36 37 39 40 40 38 34 27 35 38 37 28 29 28 25 26 25 29 28 28 26 24 25 23 22 24 25 23 27 39 31 31 28 32 35 31 31 31 29 27 23 22 21
35 36 37 39 39 39 35 34 29 34 27 29 32 30 29 25 23 25 27 27 26 25 23 23 21 23 24 23 24 36 35 28 29 28 30 34 31 29 27 23 27 27 27 23
37 37 38 40 39 41 35 30 30 34 32 33 32 30 30 26 25 26 25 25 27 26 24 23 20 22 22 21 26 28 30 30 34 30 32 31 29 29 27 25 27 27 25 26
38 39 40 40 40 38 34 35 37 35 28 30 31 30 28 29 27 26 27 26 26 26 27 28 27 27 27 26 25 24 26 32 30 25 30 29 22 24 24 26 26 26 24 24
39 39 39 40 40 40 37 37 37 31 25 30 30 33 30 29 27 25 27 26 27 30 31 33 31 30 29 29 28 28 25 28 30 26 26 18 16 25 27 27 26 28 26 27
40 40 41 41 41 40 39 38 37 33 26 27 30 32 32 30 29 28 28 28 28 32 31 31 28 24 28 29 29 29 28 28 27 26 24 21 20 17 20 22 21 34 37 37
42 43 43 43 41 40 40 39 40 37 30 28 30 33 34 30 30 31 30 31 36 32 33 29 22 18 20 21 28 35 32 31 28 28 22 18 18 28 37 31 21 34 35 34
41 40 42 43 42 41 41 40 41 38 31 34 32 29 31 33 31 30 31 32 34 35 30 25 23 20 24 20 22 26 29 30 26 27 24 25 28 30 40 24 24 33 34 33
42 40 41 43 42 42 41 39 43 38 32 36 35 34 32 36 34 30 32 32 33 31 28 27 25 24 25 21 25 29 25 26 26 25 25 21 30 34 26 25 31 33 32 33
41 40 40 42 44 43 43 38 43 42 36 36 40 39 38 37 36 33 33 30 31 32 29 28 25 24 25 24 20 28 22 27 26 29 26 30 35 35 33 35 35 35 34 35
42 41 39 41 42 44 43 39 42 40 32 35 36 36 39 40 39 39 33 32 33 33 33 28 26 22 26 23 24 24 27 29 27 25 25 24 24 30 39 39 39 39 40 38
43 43 42 41 42 42 40 39 41 38 36 30 32 38 39 40 41 40 40 38 38 37 35 30 28 24 27 23 23 24 24 26 25 24 26 32 29 37 39 38 39 37 36 37
44 43 44 42 42 42 41 41 42 41 34 29 31 36 36 39 39 39 41 40 38 35 35 33 31 31 32 33 33 30 32 28 26 23 35 35 35 37 38 36 35 33 31 30
43 44 44 44 42 43 39 33 41 43 41 33 27 34 35 37 39 37 38 39 39 39 36 34 35 36 31 28 27 32 34 33 34 34 35 36 37 39 34 33 33 31 29 27
42 43 45 44 42 40 35 33 39 42 41 33 25 29 36 38 38 37 36 36 37 37 36 33 35 35 34 31 26 30 30 29 30 32 34 35 36 35 32 31 30 28 26 25
42 43 44 44 43 40 37 42 41 40 37 35 29 29 33 36 33 33 37 36 37 37 34 35 34 36 35 29 26 26 26 26 29 29 31 33 35 32 29 28 28 26 24 23
43 44 44 41 39 34 39 42 41 41 36 30 30 27 27 36 34 36 36 37 31 37 32 33 35 29 27 22 22 23 23 23 25 26 29 32 31 27 26 26 25 24 23 23
43 40 36 33 39 43 41 38 35 34 35 35 29 32 30 33 34 32 31 33 31 27 31 32 26 20 22 22 22 21 22 23 24 24 24 25 26 25 23 23 23 23 21 20
39 34 34 41 40 37 34 30 29 30 28 31 32 32 30 36 30 30 33 30 30 25 28 27 20 17 19 21 20 20 21 22 22 24 24 23 24 23 21 20 21 20 19 17
37 36 36 30 29 30 28 27 29 28 26 29 31 32 33 34 34 32 31 29 29 23 26 19 13 17 19 19 18 19 20 20 20 20 20 21 20 19 19 18 17 17 17 16
27 22 17 19 17 15 17 20 21 22 23 25 29 30 32 33 34 32 30 25 20 24 16 11 14 17 18 18 18 18 19 19 18 19 19 18 17 18 17 16 17 16 15 16
19 15 12 12 11 15 15 16 18 22 24 24 28 28 27 27 24 24 20 19 19 12 9 9 14 17 18 19 20 18 18 18 18 18 17 17 17 16 17 17 16 15 13 14
17 14 12 13 16 17 18 19 21 22 24 26 29 24 22 20 18 19 17 14 9 9 8 12 16 18 19 19 19 18 18 18 17 17 16 16 16 15 15 16 16 15 15 14
15 14 12 13 13 14 15 16 17 22 22 26 23 21 17 16 15 12 9 10 6 8 13 16 17 16 17 17 17 17 18 18 18 17 17 16 15 14 14 15 14 14 13 12
14 13 15 13 14 13 15 16 17 21 21 19 18 13 13 18 11 7 10 7 10 13 13 14 15 15 15 16 16 16 17 16 17 17 17 16 16 16 13 11 13 13 13 12

GFSNW_sfc_30mbdewp_072.txt.gz
Dewpoint
37 38 38 38 38 39 39 34 28 38 44 33 33 28 27 25 21 22 24 27 25 23 21 19 14 18 23 24 25 30 33 28 21 22 23 23 22 22 23 21 19 21 20 19
36 39 39 38 38 39 35 29 29 38 42 27 28 31 29 24 22 20 21 22 26 25 22 18 18 21 26 26 21 26 31 29 16 14 20 26 21 26 26 26 25 23 23 22
37 38 39 38 39 39 37 32 26 29 37 35 28 26 25 29 24 22 25 24 27 25 23 22 19 19 20 23 21 30 32 27 30 21 24 29 30 29 29 28 23 21 21 21
36 38 39 37 39 39 37 33 27 25 27 28 31 25 25 23 21 24 24 23 24 23 21 21 21 20 21 21 27 28 36 24 24 26 23 24 24 24 24 24 24 23 23 24
36 36 38 38 39 39 37 30 25 29 28 27 32 31 29 24 21 22 22 23 24 25 23 22 19 21 21 21 22 25 30 22 29 22 22 23 22 22 22 21 21 25 26 23
37 37 38 38 39 39 35 36 32 30 26 22 23 26 25 30 24 23 22 23 24 25 25 26 27 27 27 25 24 25 25 27 24 19 26 24 21 22 19 19 19 23 21 19
39 38 38 38 39 40 35 34 32 29 21 23 24 19 26 29 27 25 25 24 25 29 32 32 31 30 28 29 27 26 24 27 28 23 26 16 16 21 22 22 21 21 20 26
41 39 39 39 39 40 39 35 34 30 23 22 20 22 31 30 28 29 26 26 27 34 34 30 25 25 26 26 27 27 27 24 25 20 16 15 15 16 16 15 13 27 25 29
41 40 39 40 41 41 39 38 37 35 29 23 20 19 25 29 29 28 28 36 33 36 34 28 20 18 19 19 26 27 28 26 23 24 17 15 17 27 31 28 15 27 29 27
42 41 41 41 42 42 41 39 39 34 29 28 34 24 21 31 34 29 31 35 35 37 31 25 21 19 20 17 21 28 27 27 24 22 22 21 23 21 34 21 25 28 28 28
42 42 42 42 43 43 43 39 41 36 30 28 28 32 27 27 30 26 34 33 33 31 28 26 22 21 20 18 21 27 26 23 24 24 21 21 27 30 26 31 30 30 31 31
42 42 42 42 41 42 43 37 42 40 35 35 35 32 33 33 32 30 36 31 33 31 29 25 25 23 23 19 16 22 25 25 23 22 22 29 33 31 29 36 36 35 37 37
43 42 42 42 40 43 43 39 41 40 35 33 33 34 36 40 39 40 34 35 36 35 32 32 28 26 22 21 19 18 21 22 25 22 22 23 23 29 36 37 37 37 36 36
43 43 43 41 41 43 43 40 41 38 35 30 33 34 32 37 40 40 40 36 37 36 36 34 31 26 25 21 20 20 19 21 21 21 22 23 24 32 37 38 38 36 35 34
43 44 43 42 42 43 44 42 42 41 33 30 29 36 35 39 40 40 39 39 38 36 35 33 31 28 29 29 29 22 22 20 21 19 31 33 31 34 37 37 37 35 33 32
43 44 43 43 43 41 39 32 40 41 40 35 28 34 35 37 40 40 39 39 39 39 36 34 36 36 31 28 24 23 34 34 33 32 34 35 36 36 36 35 35 32 30 28
44 44 44 43 43 39 36 35 37 43 40 35 29 29 35 36 37 38 38 39 37 37 34 34 36 33 32 33 25 31 30 29 29 31 32 32 35 34 32 31 32 30 28 27
42 44 44 43 40 40 39 40 43 42 37 34 28 29 32 36 35 33 38 36 36 35 34 36 34 34 35 30 27 26 25 26 28 28 28 29 33 30 28 28 28 26 24 24
44 44 43 40 38 35 39 41 41 43 36 29 30 28 26 34 31 32 34 36 30 36 31 33 35 32 27 22 23 23 23 23 24 25 27 28 29 26 26 25 24 23 22 21
41 39 35 31 38 43 41 38 33 34 36 36 31 34 30 31 30 33 32 34 31 28 32 33 29 22 22 21 21 21 22 23 24 24 25 24 25 24 23 23 23 21 20 19
39 35 34 40 42 38 35 31 29 31 29 31 32 32 30 37 29 29 33 31 31 26 28 30 24 20 21 20 19 20 21 21 21 22 22 22 22 22 21 20 20 18 18 16
37 36 35 34 30 32 29 28 30 29 27 31 31 32 35 33 35 32 32 30 30 25 27 25 19 17 18 18 18 19 20 19 19 20 20 20 19 19 19 18 17 16 16 16
27 23 21 23 22 20 22 21 24 25 26 29 30 30 33 34 32 32 31 26 22 26 21 16 16 17 17 18 18 18 18 19 18 19 18 18 18 18 17 16 17 17 15 16
21 19 15 17 15 17 18 20 22 24 26 27 31 30 29 30 27 27 23 22 22 18 15 13 15 17 18 20 20 17 17 18 18 17 17 16 16 16 16 16 16 15 14 14
17 16 14 15 18 19 20 22 23 25 27 30 29 27 26 23 22 21 21 18 13 12 12 13 17 18 19 19 19 18 18 17 17 17 16 16 16 15 15 16 16 15 14 14
15 16 17 18 19 19 20 20 22 24 26 28 26 23 20 18 17 14 13 12 10 10 14 17 17 17 18 18 18 18 19 18 18 17 17 16 15 15 14 15 14 14 13 12
15 15 17 17 17 16 18 19 20 23 26 23 20 17 16 17 13 10 11 9 12 14 15 16 17 17 17 18 18 18 18 18 18 17 17 16 17 16 15 12 14 14 13 11